User: anonymous   Login
Location: Mt. Cuba Astronomical Observatory
(39.8100°N, 75.6300°W)
Time: 18:25:47
(UTC-05:00)
Language:

Cosmos 2058 - Orbit

View from above orbital plane
View from above orbital plane
View from above satellite
View from above satellite

Ground track
Ground track

The orbit data is extracted from the following two-line orbital elements,

1 20465U 90010A   16042.36356096  .00001476  00000-0  12563-3 0  9996
2 20465  82.4914   0.5664 0016592 145.5130 214.7172 14.97013451411746
Epoch (UTC): 11 February 2016 08:43:31
Eccentricity: 0.0016592
inclination: 82.4914°
perigee height: 564 km
apogee height: 587 km
right ascension of ascending node: 0.5664°
argument of perigee: 145.5130°
revolutions per day: 14.97013451
mean anomaly at epoch: 214.7172°
orbit number at epoch: 41174

The dashed part of the orbit path shows where the satellite is in the earth's shadow,  

DLR